Hourly Data Report for September 20, 2017

All times are specified in Local Standard Time (LST). Add 1 hour to adjust for Daylight Saving Time where and when it is observed.

NORTH CAPE
PRINCE EDWARD ISLAND

47°03'29.000" N
63°59'55.000" W
7.60 m
8300516
71987
WNE

Download Data

Hourly Data (September 2017)
Hourly Data Report for September 20, 2017
Temp Definition
°C
Dew Point Temp Definition
°C
Rel Hum Definition
%
Wind Dir Definition
10's deg

Wind Spd Definition
km/h
Visibility Definition
km
Stn Press Definition
kPa
Hmdx Definition


Wind Chill Definition


Weather Definition


TIME
00:00 16.6 15.7 94 17 11   101.87     LegendNANA
01:00 17.0 16.1 94 19 12   101.85     LegendNANA
02:00 17.0 15.9 94 19 11   101.81     LegendNANA
03:00 16.6 15.7 95 19 7   101.78     LegendNANA
04:00 15.3 14.5 95 12 3   101.74     LegendNANA
05:00 14.8 14.0 95 32 3   101.74     LegendNANA
06:00 14.4 13.7 96 30 7   101.74     LegendNANA
07:00 14.7 14.1 96 25 5   101.74     LegendNANA
08:00 15.0 14.4 97 22 6   101.74     LegendNANA
09:00 15.4 14.8 96 23 10   101.70     LegendNANA
10:00 14.7 14.0 96 24 8   101.71     LegendNANA
11:00 14.7 14.1 96 26 8   101.63     LegendNANA
12:00 15.1 13.9 93 29 10   101.60     LegendNANA
13:00 14.5 13.4 93 30 10   101.56     LegendNANA
14:00 13.9 12.6 92 34 9   101.53     LegendNANA
15:00 13.3 12.1 93 1 19   101.51     LegendNANA
16:00 12.5 11.7 95 3 23   101.53     LegendNANA
17:00 12.1 11.3 95 6 23   101.55     LegendNANA
18:00 12.0 10.7 92 5 24   101.56     LegendNANA
19:00 12.1 10.4 90 4 25   101.56     LegendNANA
20:00 12.1 10.5 90 4 21   101.57     LegendNANA
21:00 12.2 10.4 89 6 17   101.60     LegendNANA
22:00 12.8 10.4 85 5 16   101.66     LegendNANA
23:00 13.0 10.8 87 2 14   101.71     LegendNANA

Notes on Data Quality.

Legend

  • E = Estimated
  • M = Missing
  • NA = Not Available
  • ‡ = Partner data that is not subject to review by the National Climate Archives
Date modified: